Location: Korczew
(51.3586°N, 19.4491°E)
Time: 17:02:20
(UTC+00:00)

Meteor 1-11 Rocket - Pass Details

Date: 19 May 2025
Orbit: 830 x 915 km, 81.2° (Epoch: 20 June)

Event Time Altitude Azimuth Distance (km) Brightness Sun altitude
Rises 20:59:32 0° 347° (NNW) 3,390 8.5 -15.4°
Reaches altitude 10° 21:01:57 10° 348° (NNW) 2,450 7.4 -15.6°
Maximum altitude 21:07:30 85° 77° (ENE) 842 3.6 -15.9°
Enters shadow 21:10:48 26° 165° (SSE) 1,605 4.5 -16.1°
